Weather Roundup
Issued by NWS

Home | Current Version | Previous Version | Graphics & Text | Print | Product List | Glossary Off
Versions: 1 2 3 4 5 6 7 8 9 10 11 12 13 14 15 16 17 18 19 20 21 22 23 24 25 26 27 28 29 30 31 32 33 34 35 36 37 38 39 40 41 42 43 44 45 46 47 48 49 50

000
NZUS93 KARX 250459
HRRWXR

CURRENT HOURLY OBSERVATIONS ACROSS
MUCH OF THE UPPER MISSISSIPPI VALLEY
NATIONAL WEATHER SERVICE LA CROSSE WI
1200 AM CDT SAT OCT 25 2014


...SOUTHEAST MINNESOTA...


CITY           SKY/WX    TMP DP  RH WIND       PRES   REMARKS
ROCHESTER      CLEAR     50  49  96 SW7       29.92S FOG
ROCHESTER/MAYO FAIR      54  53  99 SW5       29.91R
WINONA         MOCLDY    57  55  94 CALM      29.89S FOG
AUSTIN         FOG       46  46 100 CALM      29.93R VSB 1/4
ALBERT LEA     CLEAR     52  48  87 CALM      29.93R
DODGE CENTER   PTCLDY    50  48  93 SW9       29.92R FOG
PRESTON        FOG       54  53  98 SW3       29.92S VSB 1/4
OWATONNA       CLEAR     54  46  76 SW7       29.92S
FARIBAULT      CLEAR     48  46  93 SW3       29.92R
$$

...ELSEWHERE IN MINNESOTA...


CITY           SKY/WX    TMP DP  RH WIND       PRES   REMARKS
MINNEAPOLIS    PTCLDY    58  46  64 W9        29.88R
INTNL FALLS    CLEAR     52  35  52 W8        29.74S
DULUTH         PTCLDY    59  36  42 W17       29.77R
RED WING       FOG       46  45  93 CALM      29.87R VSB<1/4
REDWOOD FALLS  PTCLDY    58  42  55 NW9       29.96R
MANKATO        CLEAR     61  41  48 W12       29.93R
WORTHINGTON    CLEAR     54  39  58 W6        30.00R
FAIRMONT       CLEAR     54   7  15 W10       29.95S
$$

...SOUTHWEST WISCONSIN...


CITY           SKY/WX    TMP DP  RH WIND       PRES   REMARKS
LA CROSSE      CLOUDY    58  55  90 S5        29.89S
PRAIRIE DU CHI CLOUDY    59  57  92 CALM      29.91F FOG
BOSCOBEL       CLOUDY    60  57  89 SW6       29.91F FOG
LONE ROCK      HAZE      57  54  88 W5        29.90S VSB 1
PLATTEVILLE    MOCLDY    56  55  97 CALM      29.93F
FORT MC COY    CLOUDY    52  51  97 CALM      29.90S FOG
VIROQUA        CLOUDY    56  56 100 W5        29.91S
WIS DELLS      CLOUDY    56  54  91 W6        29.88F FOG
$$

...ELSEWHERE IN WISCONSIN...


CITY           SKY/WX    TMP DP  RH WIND       PRES   REMARKS
MILWAUKEE      CLOUDY    56  49  77 SW8       29.90F
MADISON        CLOUDY    55  50  83 CALM      29.89F
GREEN BAY      MOCLDY    53  50  89 S7        29.83F
EAU CLAIRE     NOT AVBL
BLACK RVR FLS  FOG       55  55 100 SW5       29.87S VSB 1
MEDFORD        CLOUDY    54  53  97 SW6       29.84F FOG
WAUSAU         CLOUDY    56  53  90 W9        29.82F
WIS RAPIDS     CLOUDY    56  55  97 W7        29.87F FOG
MARSHFIELD     CLOUDY    56  54  93 W10       29.85F FOG
RICE LAKE      FOG       53  51  95 CALM      29.85F VSB 1/4
$$

...NORTHEAST IOWA...


CITY           SKY/WX    TMP DP  RH WIND       PRES   REMARKS
DECORAH          N/A     59  59 100 W6        29.92R FOG
MASON CITY     CLEAR     53  50  89 W7        29.95F
CHARLES CITY   FOG       52  52 100 SW3       29.95R VSB<1/4
OELWEIN        FOG       59  59 100 SW9       29.94F VSB<1/4
$$

...ELSEWHERE IN IOWA...


CITY           SKY/WX    TMP DP  RH WIND       PRES   REMARKS
DES MOINES     FOG       56  54  93 W3        29.97S VSB 1/4
IOWA CITY      FOG       50  50 100 CALM      29.97R VSB 1/4
FORT DODGE     CLEAR     50  45  81 CALM      29.97S
$$

...NORTHERN ILLINOIS...


CITY           SKY/WX    TMP DP  RH WIND       PRES   REMARKS
CHICAGO-OHARE  MOCLDY    60  49  66 SW6       29.92F
CHICAGO-MIDWAY CLOUDY    62  51  67 SW8       29.93F
MOLINE         FOG       55  54  96 W3        29.94S VSB 1/4
ROCKFORD       CLOUDY    57  50  77 S5        29.95F
PEORIA         MOCLDY    59  50  72 S7        29.94F
$$

NOTE: "FAIR" INDICATES FEW OR NO CLOUDS BELOW 12,000 FEET WITH NO
SIGNIFICANT WEATHER AND/OR OBSTRUCTIONS TO VISIBILITY. WIND
SPEEDS ARE IN MILES-PER-HOUR.



USA.gov is the U.S. government's official web portal to all federal, state and local government web resources and services.